Flag for Sweden Weather past 2 weeks in Kiruna, Sweden

Now
54 °F

Passing clouds.


Feels Like: 53 °F
Forecast: 42 / 49 °F
Wind: 5 mph from Northeast

Location: Kiruna Airport

Current Time: Jul 5, 2015 at 5:49:04 PM

Latest Report: Jul 5, 2015 at 5:20 PM


Visibility: N/A

Pressure: 30.12 "Hg (28.26 "Hg at 532m altitude)

Humidity: 41%

Dew point: 30 °F

Location of KirunaLocation

Historic Weather in Kiruna — Graph

°F

Kiruna temperature yesterday

Maximum temperature yesterday: 57 °F (at 1:50 PM)
Minimum temperature yesterday: 43 °F (at 10:50 PM)
Average temperature yesterday: 50 °F

Past Weeks' High & Low Weather Summary

 TemperatureHumidityPressure
High68 °F (Jun 22, 6:50 PM)100% (Jun 23, 4:20 AM)30.18 "Hg (Jun 23, 4:20 AM)
Low37 °F (Jun 30, 1:50 AM)31% (Jul 1, 3:50 PM)29.53 "Hg (Jun 25, 8:50 AM)
Average52 °F69%29.90 "Hg
* Reported Jun 20 4:20 PM — Jul 5 4:50 PM, Kiruna, Weather by CustomWeather, © 2015

Note: Actual official high and low records may vary slightly from our data, if they occured in-between our weather recording intervals... More about our weather records

Advertising

Kiruna weather history for previous 24 hours

 ConditionsComfort  
Time TempWeatherWind HumidityBarometerVisibility
4:50 PM
Sun, Jul 5
54 °FSunny.6 mph41%30.12 "Hg10 mi
4:20 PM54 °FSunny.2 mph38%30.12 "Hg10 mi
3:50 PM54 °FPassing clouds.3 mph41%30.12 "HgN/A
3:20 PM54 °FPassing clouds.6 mph38%30.12 "HgN/A
2:50 PM54 °FSunny.2 mph38%30.12 "Hg10 mi
2:20 PM54 °FPassing clouds.3 mph38%30.12 "HgN/A
1:50 PM55 °FPassing clouds.5 mph38%30.15 "HgN/A
1:20 PM54 °FPassing clouds.5 mph38%30.15 "HgN/A
12:50 PM52 °FPassing clouds.5 mph44%30.15 "HgN/A
12:20 PM52 °FScattered clouds.3 mph44%30.15 "HgN/A
11:50 AM52 °FPassing clouds.5 mph44%30.15 "HgN/A
11:20 AM52 °FSunny.3 mph47%30.15 "Hg10 mi
10:50 AM50 °FPassing clouds.5 mph50%30.15 "HgN/A
10:20 AM50 °FScattered clouds.5 mph50%30.18 "HgN/A
9:50 AM50 °FPartly sunny.3 mph50%30.18 "HgN/A
9:20 AM48 °FBroken clouds.3 mph54%30.18 "HgN/A
8:50 AM48 °FPassing clouds.6 mph50%30.18 "HgN/A
8:20 AM46 °FPassing clouds.7 mph57%30.18 "HgN/A
7:50 AM45 °FBroken clouds.7 mph61%30.18 "HgN/A
7:20 AM45 °FPassing clouds.6 mph66%30.18 "HgN/A
6:50 AM45 °FQuite cool.7 mph66%30.18 "HgN/A
6:20 AM45 °FQuite cool.7 mph66%30.18 "HgN/A
5:50 AM43 °FQuite cool.7 mph71%30.18 "HgN/A
5:20 AM43 °FQuite cool.7 mph71%30.18 "HgN/A
4:50 AM41 °FQuite cool.3 mph76%30.18 "HgN/A
4:20 AM41 °FQuite cool.2 mph76%30.18 "HgN/A
3:50 AM39 °FChilly.6 mph81%30.18 "HgN/A
3:20 AM39 °FChilly.5 mph81%30.18 "HgN/A
2:50 AM39 °FChilly.8 mph81%30.18 "HgN/A
2:20 AM39 °FChilly.6 mph81%30.18 "HgN/A
1:50 AM39 °FChilly.5 mph81%30.18 "HgN/A
1:20 AM39 °FChilly.5 mph81%30.18 "HgN/A
12:50 AM41 °FQuite cool.8 mph76%30.18 "HgN/A
12:20 AM43 °FScattered clouds.2 mph71%30.18 "HgN/A
11:50 PM
Sat, Jul 4
43 °FQuite cool.8 mph66%30.15 "HgN/A
11:20 PM45 °FScattered clouds.10 mph61%30.15 "HgN/A
10:50 PM43 °FQuite cool.7 mph76%30.15 "HgN/A
10:20 PM45 °FPassing clouds.7 mph66%30.15 "HgN/A
9:50 PM45 °FQuite cool.12 mph71%30.15 "HgN/A
9:20 PM46 °FCool.13 mph66%30.12 "HgN/A
8:50 PM48 °FCool.13 mph62%30.12 "HgN/A
8:20 PM48 °FCool.14 mph62%30.12 "HgN/A
7:50 PM50 °FCool.15 mph54%30.12 "HgN/A
7:20 PM50 °FCool.16 mph58%30.12 "HgN/A
6:50 PM50 °FCool.17 mph58%30.12 "HgN/A
6:20 PM50 °FCool.15 mph58%30.09 "HgN/A
5:50 PM52 °FScattered clouds.17 mph54%30.09 "HgN/A
5:20 PM54 °FPassing clouds.17 mph54%30.09 "HgN/A
Weather by CustomWeather, © 2015

See weather overviewHow to use our weather pages